Torna al catalogo

STARLINK-34905

AttivoComunicazioniVLEO
NORAD 65202·PAYLOAD·🇺🇸 United States

Lanciato Aug 14, 2025 da Cape Canaveral Space Force Station

Loading…

Prossimi Passaggi (prossime 24 ore)

TLE

AggiornatoSource: CelesTrak SupGP

Epoca: Sep 14, 2026, 22:56 UTC

1 65202C 25176E   26257.95604167 -.00000280  00000+0 -82703-5 0  2579
2 65202  53.1593 349.5195 0001186  87.5830 344.3590 15.34375663    18

Traccia STARLINK-34905 in tempo reale con AllMySat

Download on the App Store